Starlink 30185

operational
NORAD ID: 57459 Int'l Des: 2023-107 Owner: SPXS Country: US Constellation: starlink
LEOCIRCULAR

Starlink 30185について

説明を読み込み中...

リアルタイム位置

3D地球を読み込み中...

次回通過

高度履歴

Altitude vs Time

uPlot chart will show altitude changes over time

軌道要素

1 57459U 23107C 25259.53312010 -.00002894 00000-0 -19942-3 0 9994
2 57459 42.9992 205.4674 0001567 265.3324 94.7339 15.02504153118910
Epoch: Sep 16, 2025 • Age: 12 hours

現在のステータス

高度 571.3 km
速度 7.58 km/s
衛星直下点 -42.81°S, 107.45°E
打ち上げ日 Jul 28, 2023
運用期間 2.1 years
タイプ internet

技術仕様

分類 Payload
質量 730.00 kg
乾燥質量 700.00 kg
総質量 730.00 kg
長さ 0.30 m
直径 4.10 m
スパン 29.00 m
形状 Box + pan
製造者 SPXS
バスタイプ Starlink V2M
フェーズステータス In Orbit
所有者/国 SPXS/US

大規模コンステレーション

Loading constellations...